Terug naar catalogus

FENGYUN 1C DEB

ActiefSSO
NORAD 30677·DEBRIS·🇨🇳 China

Gelanceerd May 10, 1999 vanaf Taiyuan Satellite Launch Center

Loading…

Volgende Passages (komende 24 uur)

TLE

VersSource: Space-Track

Epoch: Sep 12, 2026, 01:56 UTC

1 30677U 99025AQK 26255.08110689  .00002077  00000-0  65843-3 0  9996
2 30677  98.2343 294.6130 0066309 101.7796 288.7825 14.39775711 19009

Volg FENGYUN 1C DEB in realtime met AllMySat

Download on the App Store